Time,TemperatureF,DewpointF,PressureIn,WindDirection,WindDirectionDegrees,WindSpeedMPH,WindSpeedGustMPH,Humidity,HourlyPrecipIn,Conditions,Clouds,dailyrainin,SoftwareType,DateUTC
2013-01-27 00:00:00,53.0,50.0,-100.00,NNW,339,8.0,-999.0,91,0.00,,,-99.99,,2013-01-27 08:00:00,
2013-01-27 00:22:00,53.0,50.0,-100.00,NNW,339,8.0,-999.0,91,0.00,,,-99.99,,2013-01-27 08:22:00,
2013-01-27 00:32:00,53.0,50.0,-100.00,NNW,339,8.0,-999.0,91,0.00,,,-99.99,,2013-01-27 08:32:00,
2013-01-27 00:42:00,53.0,50.0,-100.00,NNW,339,8.0,-999.0,91,0.00,,,-99.99,,2013-01-27 08:42:00,
2013-01-27 00:52:00,53.0,50.0,-100.00,NNW,339,8.0,-999.0,91,0.00,,,-99.99,,2013-01-27 08:52:00,
2013-01-27 01:00:00,52.0,42.0,-100.00,NNW,336,9.0,-999.0,69,0.00,,,-99.99,,2013-01-27 09:00:00,
2013-01-27 01:22:00,52.0,42.0,-100.00,NNW,336,9.0,-999.0,69,0.00,,,-99.99,,2013-01-27 09:22:00,
2013-01-27 01:32:00,52.0,42.0,-100.00,NNW,336,9.0,-999.0,69,0.00,,,-99.99,,2013-01-27 09:32:00,
2013-01-27 01:42:00,52.0,42.0,-100.00,NNW,336,9.0,-999.0,69,0.00,,,-99.99,,2013-01-27 09:42:00,
2013-01-27 01:52:00,52.0,42.0,-100.00,NNW,336,9.0,-999.0,69,0.00,,,-99.99,,2013-01-27 09:52:00,
2013-01-27 02:00:00,50.0,41.0,-100.00,NNW,346,8.0,-999.0,70,0.00,,,-99.99,,2013-01-27 10:00:00,
2013-01-27 02:21:00,50.0,41.0,-100.00,NNW,346,8.0,-999.0,70,0.00,,,-99.99,,2013-01-27 10:21:00,
2013-01-27 02:32:00,50.0,41.0,-100.00,NNW,346,8.0,-999.0,70,0.00,,,-99.99,,2013-01-27 10:32:00,
2013-01-27 02:42:00,50.0,41.0,-100.00,NNW,346,8.0,-999.0,70,0.00,,,-99.99,,2013-01-27 10:42:00,
2013-01-27 02:52:00,50.0,41.0,-100.00,NNW,346,8.0,-999.0,70,0.00,,,-99.99,,2013-01-27 10:52:00,
2013-01-27 03:00:00,48.0,41.0,-100.00,North,353,15.0,-999.0,76,0.00,,,-99.99,,2013-01-27 11:00:00,
2013-01-27 03:22:00,48.0,41.0,-100.00,North,353,15.0,-999.0,76,0.00,,,-99.99,,2013-01-27 11:22:00,
2013-01-27 03:32:00,48.0,41.0,-100.00,North,353,15.0,-999.0,76,0.00,,,-99.99,,2013-01-27 11:32:00,
2013-01-27 03:42:00,48.0,41.0,-100.00,North,353,15.0,-999.0,76,0.00,,,-99.99,,2013-01-27 11:42:00,
2013-01-27 03:52:00,48.0,41.0,-100.00,North,353,15.0,-999.0,76,0.00,,,-99.99,,2013-01-27 11:52:00,
2013-01-27 04:00:00,47.0,40.0,-100.00,North,2,9.0,-999.0,79,0.00,,,-99.99,,2013-01-27 12:00:00,
2013-01-27 04:22:00,47.0,40.0,-100.00,North,2,9.0,-999.0,79,0.00,,,-99.99,,2013-01-27 12:22:00,
2013-01-27 04:32:00,47.0,40.0,-100.00,North,2,9.0,-999.0,79,0.00,,,-99.99,,2013-01-27 12:32:00,
2013-01-27 04:42:00,47.0,40.0,-100.00,North,2,9.0,-999.0,79,0.00,,,-99.99,,2013-01-27 12:42:00,
2013-01-27 04:52:00,47.0,40.0,-100.00,North,2,9.0,-999.0,79,0.00,,,-99.99,,2013-01-27 12:52:00,
2013-01-27 05:00:00,46.0,40.0,-100.00,NW,314,4.0,-999.0,78,0.00,,,-99.99,,2013-01-27 13:00:00,
2013-01-27 05:22:00,46.0,40.0,-100.00,NW,314,4.0,-999.0,78,0.00,,,-99.99,,2013-01-27 13:22:00,
2013-01-27 05:32:00,46.0,40.0,-100.00,NW,314,4.0,-999.0,78,0.00,,,-99.99,,2013-01-27 13:32:00,
2013-01-27 05:42:00,46.0,40.0,-100.00,NW,314,4.0,-999.0,78,0.00,,,-99.99,,2013-01-27 13:42:00,
2013-01-27 05:52:00,46.0,40.0,-100.00,NW,314,4.0,-999.0,78,0.00,,,-99.99,,2013-01-27 13:52:00,
2013-01-27 06:00:00,46.0,40.0,-100.00,WNW,290,3.0,-999.0,79,0.00,,,-99.99,,2013-01-27 14:00:00,
2013-01-27 06:22:00,46.0,40.0,-100.00,WNW,290,3.0,-999.0,79,0.00,,,-99.99,,2013-01-27 14:22:00,
2013-01-27 06:33:00,46.0,40.0,-100.00,WNW,290,3.0,-999.0,79,0.00,,,-99.99,,2013-01-27 14:33:00,
2013-01-27 06:43:00,46.0,40.0,-100.00,WNW,290,3.0,-999.0,79,0.00,,,-99.99,,2013-01-27 14:43:00,
2013-01-27 06:52:00,46.0,40.0,-100.00,WNW,290,3.0,-999.0,79,0.00,,,-99.99,,2013-01-27 14:52:00,
2013-01-27 07:00:00,46.0,39.0,-100.00,WNW,282,6.0,-999.0,78,0.00,,,-99.99,,2013-01-27 15:00:00,
2013-01-27 07:22:00,46.0,39.0,-100.00,WNW,282,6.0,-999.0,78,0.00,,,-99.99,,2013-01-27 15:22:00,
2013-01-27 07:32:00,46.0,39.0,-100.00,WNW,282,6.0,-999.0,78,0.00,,,-99.99,,2013-01-27 15:32:00,
2013-01-27 07:42:00,46.0,39.0,-100.00,WNW,282,6.0,-999.0,78,0.00,,,-99.99,,2013-01-27 15:42:00,
2013-01-27 07:52:00,46.0,39.0,-100.00,WNW,282,6.0,-999.0,78,0.00,,,-99.99,,2013-01-27 15:52:00,
2013-01-27 08:00:00,45.0,39.0,-100.00,West,281,4.0,-999.0,79,0.00,,,-99.99,,2013-01-27 16:00:00,
2013-01-27 08:32:00,45.0,39.0,-100.00,West,281,4.0,-999.0,79,0.00,,,-99.99,,2013-01-27 16:32:00,
2013-01-27 08:42:00,45.0,39.0,-100.00,West,281,4.0,-999.0,79,0.00,,,-99.99,,2013-01-27 16:42:00,
2013-01-27 08:52:00,45.0,39.0,-100.00,West,281,4.0,-999.0,79,0.00,,,-99.99,,2013-01-27 16:52:00,
2013-01-27 09:00:00,47.0,40.0,-100.00,South,188,2.0,-999.0,76,0.00,,,-99.99,,2013-01-27 17:00:00,
2013-01-27 09:22:00,47.0,40.0,-100.00,South,188,2.0,-999.0,76,0.00,,,-99.99,,2013-01-27 17:22:00,
2013-01-27 09:32:00,47.0,40.0,-100.00,South,188,2.0,-999.0,76,0.00,,,-99.99,,2013-01-27 17:32:00,
2013-01-27 09:42:00,47.0,40.0,-100.00,South,188,2.0,-999.0,76,0.00,,,-99.99,,2013-01-27 17:42:00,
2013-01-27 09:52:00,47.0,40.0,-100.00,South,188,2.0,-999.0,76,0.00,,,-99.99,,2013-01-27 17:52:00,
2013-01-27 10:00:00,49.0,39.0,-100.00,NNW,329,6.0,-999.0,69,0.00,,,-99.99,,2013-01-27 18:00:00,
2013-01-27 10:23:00,49.0,39.0,-100.00,NNW,329,6.0,-999.0,69,0.00,,,-99.99,,2013-01-27 18:23:00,
2013-01-27 10:32:00,49.0,39.0,-100.00,NNW,329,6.0,-999.0,69,0.00,,,-99.99,,2013-01-27 18:32:00,
2013-01-27 10:42:00,49.0,39.0,-100.00,NNW,329,6.0,-999.0,69,0.00,,,-99.99,,2013-01-27 18:42:00,
2013-01-27 10:52:00,49.0,39.0,-100.00,NNW,329,6.0,-999.0,69,0.00,,,-99.99,,2013-01-27 18:52:00,
2013-01-27 11:00:00,49.0,38.0,-100.00,NNW,338,7.0,-999.0,66,0.00,,,-99.99,,2013-01-27 19:00:00,
2013-01-27 11:22:00,49.0,38.0,-100.00,NNW,338,7.0,-999.0,66,0.00,,,-99.99,,2013-01-27 19:22:00,
2013-01-27 11:33:00,49.0,38.0,-100.00,NNW,338,7.0,-999.0,66,0.00,,,-99.99,,2013-01-27 19:33:00,
2013-01-27 11:42:00,49.0,38.0,-100.00,NNW,338,7.0,-999.0,66,0.00,,,-99.99,,2013-01-27 19:42:00,
2013-01-27 11:52:00,49.0,38.0,-100.00,NNW,338,7.0,-999.0,66,0.00,,,-99.99,,2013-01-27 19:52:00,
2013-01-27 12:00:00,50.0,38.0,-100.00,NNW,334,11.0,-999.0,62,0.00,,,-99.99,,2013-01-27 20:00:00,
2013-01-27 12:22:00,50.0,38.0,-100.00,NNW,334,11.0,-999.0,62,0.00,,,-99.99,,2013-01-27 20:22:00,
2013-01-27 12:33:00,50.0,38.0,-100.00,NNW,334,11.0,-999.0,62,0.00,,,-99.99,,2013-01-27 20:33:00,
2013-01-27 12:42:00,50.0,38.0,-100.00,NNW,334,11.0,-999.0,62,0.00,,,-99.99,,2013-01-27 20:42:00,
2013-01-27 12:52:00,50.0,38.0,-100.00,NNW,334,11.0,-999.0,62,0.00,,,-99.99,,2013-01-27 20:52:00,
2013-01-27 13:00:00,51.0,38.0,-100.00,NNW,328,10.0,-999.0,61,0.00,,,-99.99,,2013-01-27 21:00:00,
2013-01-27 13:22:00,51.0,38.0,-100.00,NNW,328,10.0,-999.0,61,0.00,,,-99.99,,2013-01-27 21:22:00,
2013-01-27 13:33:00,51.0,38.0,-100.00,NNW,328,10.0,-999.0,61,0.00,,,-99.99,,2013-01-27 21:33:00,
2013-01-27 13:42:00,51.0,38.0,-100.00,NNW,328,10.0,-999.0,61,0.00,,,-99.99,,2013-01-27 21:42:00,
2013-01-27 13:52:00,51.0,38.0,-100.00,NNW,328,10.0,-999.0,61,0.00,,,-99.99,,2013-01-27 21:52:00,
2013-01-27 14:00:00,51.0,37.0,-100.00,NW,313,6.0,-999.0,58,0.00,,,-99.99,,2013-01-27 22:00:00,
2013-01-27 14:22:00,51.0,37.0,-100.00,NW,313,6.0,-999.0,58,0.00,,,-99.99,,2013-01-27 22:22:00,
2013-01-27 14:32:00,51.0,37.0,-100.00,NW,313,6.0,-999.0,58,0.00,,,-99.99,,2013-01-27 22:32:00,
2013-01-27 14:42:00,51.0,37.0,-100.00,NW,313,6.0,-999.0,58,0.00,,,-99.99,,2013-01-27 22:42:00,
2013-01-27 14:52:00,51.0,37.0,-100.00,NW,313,6.0,-999.0,58,0.00,,,-99.99,,2013-01-27 22:52:00,
2013-01-27 15:00:00,52.0,36.0,-100.00,NW,321,7.0,-999.0,55,0.00,,,-99.99,,2013-01-27 23:00:00,
2013-01-27 15:22:00,52.0,36.0,-100.00,NW,321,7.0,-999.0,55,0.00,,,-99.99,,2013-01-27 23:22:00,
2013-01-27 15:32:00,52.0,36.0,-100.00,NW,321,7.0,-999.0,55,0.00,,,-99.99,,2013-01-27 23:32:00,
2013-01-27 15:42:00,52.0,36.0,-100.00,NW,321,7.0,-999.0,55,0.00,,,-99.99,,2013-01-27 23:42:00,
2013-01-27 15:53:00,52.0,36.0,-100.00,NW,321,7.0,-999.0,55,0.00,,,-99.99,,2013-01-27 23:53:00,
2013-01-27 16:00:00,52.0,37.0,-100.00,WNW,296,8.0,-999.0,56,0.00,,,-99.99,,2013-01-28 00:00:00,
2013-01-27 16:22:00,52.0,37.0,-100.00,WNW,296,8.0,-999.0,56,0.00,,,-99.99,,2013-01-28 00:22:00,
2013-01-27 16:33:00,52.0,37.0,-100.00,WNW,296,8.0,-999.0,56,0.00,,,-99.99,,2013-01-28 00:33:00,
2013-01-27 16:42:00,52.0,37.0,-100.00,WNW,296,8.0,-999.0,56,0.00,,,-99.99,,2013-01-28 00:42:00,
2013-01-27 16:52:00,52.0,37.0,-100.00,WNW,296,8.0,-999.0,56,0.00,,,-99.99,,2013-01-28 00:52:00,
2013-01-27 17:00:00,51.0,38.0,-100.00,NW,311,6.0,-999.0,61,0.00,,,-99.99,,2013-01-28 01:00:00,
2013-01-27 17:22:00,51.0,38.0,-100.00,NW,311,6.0,-999.0,61,0.00,,,-99.99,,2013-01-28 01:22:00,
2013-01-27 17:33:00,51.0,38.0,-100.00,NW,311,6.0,-999.0,61,0.00,,,-99.99,,2013-01-28 01:33:00,
2013-01-27 17:42:00,51.0,38.0,-100.00,NW,311,6.0,-999.0,61,0.00,,,-99.99,,2013-01-28 01:42:00,
2013-01-27 17:52:00,51.0,38.0,-100.00,NW,311,6.0,-999.0,61,0.00,,,-99.99,,2013-01-28 01:52:00,
2013-01-27 18:00:00,48.0,38.0,-100.00,WNW,283,3.0,-999.0,66,0.00,,,-99.99,,2013-01-28 02:00:00,
2013-01-27 18:22:00,48.0,38.0,-100.00,WNW,283,3.0,-999.0,66,0.00,,,-99.99,,2013-01-28 02:22:00,
2013-01-27 18:32:00,48.0,38.0,-100.00,WNW,283,3.0,-999.0,66,0.00,,,-99.99,,2013-01-28 02:32:00,
2013-01-27 18:42:00,48.0,38.0,-100.00,WNW,283,3.0,-999.0,66,0.00,,,-99.99,,2013-01-28 02:42:00,
2013-01-27 18:52:00,48.0,38.0,-100.00,WNW,283,3.0,-999.0,66,0.00,,,-99.99,,2013-01-28 02:52:00,
2013-01-27 19:00:00,45.0,39.0,-100.00,SSW,193,2.0,-999.0,76,0.00,,,-99.99,,2013-01-28 03:00:00,
2013-01-27 19:22:00,45.0,39.0,-100.00,SSW,193,2.0,-999.0,76,0.00,,,-99.99,,2013-01-28 03:22:00,
2013-01-27 19:32:00,45.0,39.0,-100.00,SSW,193,2.0,-999.0,76,0.00,,,-99.99,,2013-01-28 03:32:00,
2013-01-27 19:42:00,45.0,39.0,-100.00,SSW,193,2.0,-999.0,76,0.00,,,-99.99,,2013-01-28 03:42:00,
2013-01-27 19:52:00,45.0,39.0,-100.00,SSW,193,2.0,-999.0,76,0.00,,,-99.99,,2013-01-28 03:52:00,
2013-01-27 20:00:00,44.0,38.0,-100.00,NE,43,3.0,-999.0,76,0.00,,,-99.99,,2013-01-28 04:00:00,
2013-01-27 20:22:00,44.0,38.0,-100.00,NE,43,3.0,-999.0,76,0.00,,,-99.99,,2013-01-28 04:22:00,
2013-01-27 20:32:00,44.0,38.0,-100.00,NE,43,3.0,-999.0,76,0.00,,,-99.99,,2013-01-28 04:32:00,
2013-01-27 20:42:00,44.0,38.0,-100.00,NE,43,3.0,-999.0,76,0.00,,,-99.99,,2013-01-28 04:42:00,
2013-01-27 20:52:00,44.0,38.0,-100.00,NE,43,3.0,-999.0,76,0.00,,,-99.99,,2013-01-28 04:52:00,
2013-01-27 21:00:00,42.0,36.0,-100.00,East,99,2.0,-999.0,80,0.00,,,-99.99,,2013-01-28 05:00:00,
2013-01-27 21:22:00,42.0,36.0,-100.00,East,99,2.0,-999.0,80,0.00,,,-99.99,,2013-01-28 05:22:00,
2013-01-27 21:32:00,42.0,36.0,-100.00,East,99,2.0,-999.0,80,0.00,,,-99.99,,2013-01-28 05:32:00,
2013-01-27 21:42:00,42.0,36.0,-100.00,East,99,2.0,-999.0,80,0.00,,,-99.99,,2013-01-28 05:42:00,
2013-01-27 21:52:00,42.0,36.0,-100.00,East,99,2.0,-999.0,80,0.00,,,-99.99,,2013-01-28 05:52:00,
2013-01-27 22:00:00,39.0,35.0,-100.00,South,173,4.0,-999.0,85,0.00,,,-99.99,,2013-01-28 06:00:00,
2013-01-27 22:22:00,39.0,35.0,-100.00,South,173,4.0,-999.0,85,0.00,,,-99.99,,2013-01-28 06:22:00,
2013-01-27 22:32:00,39.0,35.0,-100.00,South,173,4.0,-999.0,85,0.00,,,-99.99,,2013-01-28 06:32:00,
2013-01-27 22:42:00,39.0,35.0,-100.00,South,173,4.0,-999.0,85,0.00,,,-99.99,,2013-01-28 06:42:00,
2013-01-27 22:52:00,39.0,35.0,-100.00,South,173,4.0,-999.0,85,0.00,,,-99.99,,2013-01-28 06:52:00,
2013-01-27 23:00:00,38.0,36.0,-100.00,SW,236,2.0,-999.0,90,0.00,,,-99.99,,2013-01-28 07:00:00,
2013-01-27 23:22:00,38.0,36.0,-100.00,SW,236,2.0,-999.0,90,0.00,,,-99.99,,2013-01-28 07:22:00,
2013-01-27 23:32:00,38.0,36.0,-100.00,SW,236,2.0,-999.0,90,0.00,,,-99.99,,2013-01-28 07:32:00,
2013-01-27 23:42:00,38.0,36.0,-100.00,SW,236,2.0,-999.0,90,0.00,,,-99.99,,2013-01-28 07:42:00,
2013-01-27 23:52:00,38.0,36.0,-100.00,SW,236,2.0,-999.0,90,0.00,,,-99.99,,2013-01-28 07:52:00,